Theta_e
312 313 313 317 323 320 322 321 325 323 320 325 325 325 326 323 324 331 335 334 334 334 335 332 332 332 331 327 324 323 321 321 320 319 318 317 317 316 316 316 316 317 318 318 319 319 320 322 324
313 312 314 320 320 321 321 322 324 323 324 325 325 324 322 325 329 333 335 334 333 334 335 332 331 331 327 324 322 321 321 320 319 317 316 316 315 316 315 315 315 316 316 316 317 318 318 318 319
313 311 317 319 320 320 322 322 322 321 323 324 322 322 322 326 329 332 335 333 334 334 333 330 329 329 325 323 321 321 320 318 317 315 315 315 315 315 315 314 314 314 315 316 316 317 317 317 317
313 314 314 315 318 317 318 319 318 321 321 322 321 322 324 326 328 332 334 333 333 333 331 329 328 327 324 321 321 319 318 316 314 315 315 315 314 313 313 313 313 314 315 315 316 316 316 316 316
312 314 314 315 316 316 315 316 316 317 319 321 321 321 324 328 331 333 334 333 332 331 329 328 327 325 323 322 320 319 317 314 314 314 313 311 309 308 310 310 310 313 314 315 315 315 315 315 315
314 314 314 315 315 314 314 315 315 316 318 320 320 320 325 329 331 333 333 332 331 330 328 327 326 322 321 321 319 317 314 313 313 310 306 305 304 303 302 303 311 312 313 313 314 314 314 314 315
315 315 314 315 314 314 314 315 315 317 317 316 321 320 326 328 331 332 332 331 331 329 328 327 325 321 319 318 316 313 309 309 306 306 306 305 303 301 303 304 307 310 311 312 312 312 313 313 313
314 315 314 314 313 314 315 316 317 317 317 318 320 319 323 329 330 331 331 330 330 329 328 327 324 321 320 317 313 309 305 304 306 306 306 305 305 306 306 304 303 304 306 308 310 311 311 310 308
313 312 314 314 314 314 314 316 317 316 317 316 319 321 324 330 329 329 329 329 328 328 327 326 323 321 319 317 311 307 304 305 307 308 307 306 307 307 306 304 303 305 307 307 310 311 307 309 311
312 313 314 314 313 313 313 314 316 314 316 316 316 321 327 329 329 329 327 328 328 327 326 324 322 320 317 313 311 310 308 310 310 309 308 307 307 305 306 307 308 310 309 310 311 311 311 311 312
312 313 314 312 311 311 312 312 313 314 315 315 315 317 324 328 329 329 328 328 328 327 325 323 321 319 315 311 310 309 310 311 310 309 307 308 307 307 308 310 311 311 311 312 312 312 311 312 312
311 312 311 311 310 311 312 312 312 313 314 314 313 313 321 326 328 328 329 328 328 327 325 322 320 317 314 311 309 310 311 311 310 308 307 308 307 308 310 311 311 311 312 311 310 310 311 312 312
311 310 310 310 310 310 310 310 311 311 313 313 312 311 317 320 323 325 327 328 328 326 324 322 319 316 313 311 310 311 311 310 308 307 307 307 307 309 311 311 311 311 311 311 312 312 311 311 312
310 311 311 311 311 310 310 310 311 311 312 312 312 311 311 315 318 322 325 327 327 326 324 322 319 316 312 312 311 311 311 309 307 307 307 306 308 310 311 311 312 312 311 312 313 312 312 312 312
310 309 309 310 310 310 310 310 311 311 311 311 310 311 311 311 313 318 323 326 327 325 324 322 319 315 312 312 311 311 310 308 307 307 307 306 308 309 311 311 311 311 311 312 313 313 313 314 314
309 309 308 309 310 309 309 309 311 310 311 311 311 311 310 310 312 316 322 325 325 325 324 322 318 315 313 312 311 310 308 307 307 307 307 307 308 309 311 311 311 310 311 312 312 312 313 313 314
309 307 310 310 308 309 309 310 310 309 309 310 311 311 311 311 313 317 321 324 324 324 323 321 317 315 313 312 310 309 308 307 306 307 306 307 308 309 310 311 310 310 312 312 313 312 314 314 314
309 309 308 308 309 308 309 309 310 310 310 311 312 312 311 311 311 317 321 322 322 323 323 320 317 315 312 310 309 308 307 306 306 307 307 308 308 309 310 311 311 310 312 312 313 313 313 314 314
307 308 307 307 306 307 308 309 310 310 311 311 311 312 312 311 311 310 315 316 320 321 322 320 316 314 311 309 309 308 308 307 307 307 306 308 308 309 310 311 311 310 312 313 313 313 314 313 314
306 305 306 306 306 308 308 308 309 309 310 310 310 311 312 312 311 309 306 307 312 320 321 319 316 312 310 309 309 309 308 307 307 307 307 307 308 308 308 311 311 310 312 313 313 313 314 314 314
308 306 306 306 307 306 307 307 308 309 309 310 311 311 311 311 310 308 308 311 314 318 320 317 314 311 310 309 307 306 306 305 306 306 307 307 307 308 308 310 311 311 312 313 313 312 314 314 315
308 307 307 307 306 306 306 307 309 310 310 310 309 309 309 309 309 309 310 312 315 318 318 315 313 310 309 308 307 307 306 306 306 307 307 306 307 308 308 310 311 310 311 313 313 312 314 314 316
308 307 307 307 307 308 308 307 308 309 308 309 311 311 310 310 309 310 311 312 316 317 316 314 311 310 308 307 308 307 306 305 306 307 307 307 307 307 307 310 311 310 311 313 312 312 314 314 315
306 307 308 307 308 315 310 308 310 310 310 310 311 312 311 311 311 311 311 314 316 316 315 313 311 309 308 308 307 306 304 305 307 306 306 307 308 308 307 309 310 310 311 312 311 312 313 314 315
308 308 322 320 318 317 310 309 310 310 310 310 311 311 311 312 312 312 313 314 315 314 313 312 310 309 308 307 306 304 304 305 307 306 306 307 307 308 307 310 310 310 311 311 313 313 313 314 315
307 309 321 319 319 314 306 309 311 311 311 308 308 310 311 313 313 314 314 314 314 313 313 311 311 309 308 306 305 303 304 305 307 305 306 307 307 307 306 309 310 309 310 311 313 313 312 313 314
308 311 310 316 309 312 312 311 311 311 310 309 308 308 310 313 314 314 314 314 314 313 312 311 311 309 307 305 304 303 303 304 306 305 306 306 306 306 306 309 310 310 310 312 313 312 312 312 314
309 309 311 314 319 318 317 316 316 315 312 311 309 308 309 312 314 315 315 314 314 313 312 311 310 308 306 304 303 303 303 304 305 305 306 305 305 304 306 308 310 311 310 311 312 312 311 312 312
308 311 310 312 314 320 322 318 315 315 314 313 311 309 308 311 313 314 314 314 314 313 311 310 309 307 304 303 302 302 303 303 304 304 305 305 305 305 306 307 309 310 311 310 312 312 311 311 311
309 310 310 315 319 314 316 318 312 313 313 311 311 310 309 308 311 313 314 313 313 312 311 309 308 306 304 302 302 302 302 303 303 304 304 304 304 305 306 306 308 310 311 310 312 311 311 311 312
Wind_Speed
9 8 7 7 6 5 9 3 2 4 3 3 2 5 8 5 7 4 9 5 11 14 12 11 10 9 7 8 6 6 5 7 8 8 9 8 9 9 9 9 10 9 9 9 9 9 10 10 9
5 7 7 4 6 8 4 5 7 3 5 3 2 2 4 5 6 9 10 8 12 13 13 11 9 7 9 7 6 6 7 8 8 8 8 9 9 10 9 9 10 10 10 10 10 10 11 11 11
4 4 5 4 6 7 3 4 4 4 3 2 1 2 3 5 5 9 7 13 14 11 11 11 9 8 9 7 6 7 8 8 8 8 8 8 8 9 9 10 11 11 10 10 10 10 10 10 11
4 5 4 7 9 8 4 2 2 5 3 2 2 3 5 5 5 5 12 14 13 12 11 11 9 10 10 8 8 8 8 7 7 7 7 7 8 9 10 10 11 12 11 11 11 11 11 11 12
5 3 7 7 10 8 5 3 2 5 1 3 4 2 2 5 8 12 14 13 13 11 11 11 10 10 10 9 8 8 7 7 7 7 7 7 8 9 9 10 11 11 11 11 12 12 12 12 12
5 4 7 9 11 6 6 6 6 7 3 4 4 4 5 7 10 12 13 12 11 11 12 11 10 10 9 8 8 7 6 6 5 4 5 7 8 10 11 10 9 10 10 11 11 11 11 11 11
10 6 11 11 8 7 7 1 8 7 8 7 1 4 5 9 10 13 12 12 11 10 11 11 10 9 9 7 7 6 4 3 1 4 6 9 10 11 10 9 9 9 10 11 11 11 11 12 12
6 5 9 7 8 8 3 4 2 6 5 4 2 3 5 11 13 14 12 12 11 11 11 11 10 10 8 7 6 4 2 0 3 5 8 10 12 13 12 9 10 10 11 11 12 12 13 13 14
3 6 9 11 7 1 2 5 4 2 6 5 4 2 7 17 16 15 13 12 12 12 12 11 11 10 8 7 6 3 1 1 4 7 10 10 8 8 8 10 12 12 14 14 14 14 14 14 13
7 9 10 3 5 4 1 5 2 5 10 10 8 6 11 15 17 17 16 15 15 15 14 13 11 10 9 7 5 4 2 1 2 5 7 7 8 9 11 11 15 16 17 14 15 14 16 13 12
5 10 8 5 5 5 6 7 6 7 9 10 9 14 12 13 16 16 16 16 17 16 15 14 13 11 9 7 6 4 3 1 1 4 6 7 7 7 8 9 10 11 13 14 15 14 14 15 13
8 11 12 3 1 3 8 6 8 13 15 4 3 1 14 15 15 18 18 18 18 18 16 15 13 11 9 7 6 4 3 1 1 3 5 5 6 7 8 9 10 10 11 14 16 15 15 14 12
11 13 8 9 8 10 12 14 14 18 15 14 6 6 12 13 16 18 18 17 18 18 17 16 14 12 10 8 5 4 3 1 1 2 4 4 4 6 7 8 9 10 11 13 13 15 14 13 12
4 9 12 11 12 10 8 15 3 10 10 17 17 15 14 14 15 17 19 20 20 19 19 17 16 13 11 9 7 5 3 2 1 2 2 4 4 5 6 7 9 10 10 12 12 13 13 13 12
5 9 13 13 12 9 4 12 17 21 18 11 11 11 12 13 19 21 22 21 21 20 18 18 17 15 13 10 8 6 4 2 1 0 2 2 3 5 6 7 9 11 10 11 10 11 14 14 14
4 4 6 3 9 3 7 15 2 4 8 14 16 14 13 12 16 20 21 21 21 20 20 18 17 16 14 11 9 6 4 3 1 0 1 2 3 4 5 7 9 10 9 10 10 11 14 13 14
7 8 10 8 7 2 12 10 1 1 6 10 10 10 10 9 13 19 21 21 20 21 21 19 18 16 14 11 9 7 5 3 2 1 1 1 3 4 4 6 8 9 8 8 8 11 11 11 13
12 11 12 11 5 7 10 19 17 12 7 8 8 8 9 10 12 17 21 19 19 21 20 20 18 17 15 13 10 7 5 4 3 2 2 1 1 3 4 5 7 9 7 8 9 9 10 9 10
6 10 12 7 1 3 11 18 18 16 15 14 14 12 13 10 10 18 18 18 19 20 22 23 21 20 18 15 11 7 6 5 4 3 3 2 0 2 4 4 6 8 7 8 9 10 9 10 12
11 11 13 9 4 4 13 18 19 19 19 17 17 16 15 13 12 15 16 16 20 22 22 23 22 21 18 16 11 6 8 6 4 4 4 3 1 1 3 4 5 7 6 8 10 11 9 7 12
16 17 13 11 4 11 12 19 21 16 14 16 16 14 13 14 16 15 16 19 20 24 25 24 24 22 19 15 13 9 7 6 6 6 5 4 2 0 2 3 3 5 6 6 8 10 9 9 8
14 12 15 11 5 5 2 9 14 8 8 10 13 14 15 12 10 14 15 20 22 23 23 23 23 22 19 17 13 11 8 7 7 8 6 5 3 1 2 3 3 3 5 5 7 8 8 8 8
3 4 10 10 9 10 11 7 6 9 9 14 14 13 14 12 12 13 14 19 21 22 23 23 21 20 18 17 12 11 8 6 8 8 8 6 4 3 1 2 2 4 4 4 5 6 7 7 7
10 9 7 3 2 6 10 12 11 13 12 11 4 10 11 10 10 11 15 18 20 21 22 22 22 20 18 16 13 11 10 9 9 8 8 7 6 4 2 2 2 3 4 3 4 6 6 5 6
12 11 2 2 3 7 3 10 16 12 6 7 8 7 11 11 12 13 15 17 21 22 23 22 22 20 18 16 14 12 10 9 9 10 8 8 7 6 4 3 1 2 4 1 2 4 4 5 6
20 16 6 7 6 3 2 9 7 7 7 5 6 5 10 12 12 14 15 19 21 22 23 22 23 20 18 16 14 12 10 9 9 10 8 8 7 6 5 4 2 3 2 2 1 2 2 3 6
10 12 9 3 2 3 7 14 13 12 13 12 10 8 12 13 13 14 14 19 21 22 22 22 22 20 19 17 14 13 11 10 9 9 8 8 7 7 6 5 2 4 2 2 1 2 2 3 5
13 14 5 4 7 11 13 19 12 4 10 13 10 9 9 12 13 14 14 18 20 21 21 20 20 19 19 17 15 13 12 11 10 10 9 8 7 8 7 5 4 3 3 1 2 3 4 4 5
9 12 10 8 10 8 7 11 13 14 16 9 11 12 13 14 14 14 14 19 20 20 20 19 19 18 18 18 16 14 13 11 11 10 9 9 8 7 7 6 5 4 3 2 2 3 4 5 7
23 21 23 9 6 11 8 14 4 3 3 3 4 9 11 12 12 13 13 19 20 20 20 20 19 19 18 18 15 15 12 12 12 11 11 10 9 8 7 7 5 5 3 3 2 3 3 6 8
Wind_Direction
335 311 293 261 246 233 253 215 6 172 194 61 26 313 359 354 351 17 127 112 136 148 148 170 177 177 160 128 117 105 87 77 69 58 49 41 34 29 26 19 16 12 8 2 357 348 342 339 330
319 312 250 277 253 233 206 152 193 173 72 119 120 227 247 82 70 108 143 136 143 143 140 166 180 176 141 132 127 110 93 83 70 57 46 36 29 25 18 12 13 7 0 355 349 345 340 337 335
298 281 263 243 250 250 0 169 156 112 134 194 196 293 352 76 83 124 107 141 143 140 144 171 182 159 143 142 128 107 95 83 69 54 43 36 27 17 13 8 3 359 356 352 345 339 339 335 330
252 197 225 251 247 260 276 158 89 157 160 197 289 220 111 47 119 101 137 143 145 139 147 169 177 161 149 145 122 107 100 85 70 58 50 37 26 15 10 3 0 357 355 349 342 339 335 331 327
227 251 244 243 257 255 260 258 248 232 160 169 190 165 98 101 111 131 141 148 150 148 151 167 179 156 143 134 121 112 101 86 73 66 47 27 10 4 360 359 359 356 351 348 342 339 334 330 325
223 277 235 239 241 201 262 247 246 236 216 126 227 229 100 132 138 144 147 150 153 150 153 163 169 158 146 136 124 116 105 90 76 49 12 0 353 349 346 351 5 360 356 353 346 338 332 326 319
259 236 247 266 266 273 250 227 225 248 231 218 40 240 95 158 143 150 151 152 155 154 156 155 155 155 161 156 152 142 126 116 13 2 358 352 348 351 355 359 357 359 358 354 344 335 329 324 316
273 265 247 233 246 251 121 199 315 251 229 78 268 242 179 148 147 147 153 158 161 162 164 165 163 156 152 145 176 176 166 347 352 351 351 356 10 359 355 10 355 360 356 346 336 332 328 321 320
273 247 244 231 232 202 147 232 156 1 260 214 182 304 100 137 145 146 155 164 169 172 174 175 170 167 165 162 174 187 190 341 355 360 351 8 352 357 4 353 0 359 354 348 342 337 337 342 339
233 240 254 350 306 267 276 265 265 238 212 223 207 125 138 149 160 164 171 176 183 182 181 180 178 174 170 172 169 166 156 135 17 1 356 356 356 351 13 355 359 0 358 2 352 344 348 341 328
212 244 302 255 281 298 283 264 237 253 246 238 221 193 174 172 184 186 192 190 190 188 186 183 181 179 177 180 179 176 174 171 14 9 3 357 357 3 2 356 355 356 357 358 353 347 343 335 331
252 244 267 298 324 273 260 295 256 245 252 63 345 197 176 189 197 198 199 196 190 189 188 184 181 179 182 183 182 188 180 165 40 5 8 10 5 8 6 2 356 359 358 356 353 346 346 343 336
239 263 264 266 268 259 276 263 268 268 260 259 230 203 199 204 203 207 204 200 192 190 187 186 181 180 181 179 185 187 190 159 84 18 11 16 14 11 9 3 3 359 354 351 348 349 353 350 348
350 268 269 272 262 247 255 266 243 253 248 248 246 216 223 215 209 203 201 197 194 192 189 183 182 180 180 180 180 189 182 176 72 19 17 12 21 16 11 8 4 2 351 345 350 354 360 0 359
284 286 275 249 246 251 240 260 239 249 251 249 231 233 224 226 219 208 201 197 195 194 187 184 181 179 179 179 179 183 185 162 133 32 22 25 21 11 14 11 7 357 351 352 354 359 355 7 6
246 247 267 57 216 215 206 259 265 50 251 241 249 233 223 228 216 208 197 194 193 190 189 184 180 179 176 176 175 177 188 164 151 114 28 41 22 17 14 15 13 357 358 2 357 354 2 9 12
207 261 232 267 195 193 215 273 40 40 245 256 250 238 227 217 206 201 194 191 189 190 185 183 179 176 172 172 168 173 177 166 161 157 105 20 14 19 18 22 10 1 11 8 6 3 13 7 25
225 226 242 252 146 222 245 261 271 263 247 263 265 238 217 213 203 196 193 191 189 188 185 180 176 172 169 170 172 176 183 174 169 171 158 116 8 19 22 23 9 11 15 13 4 0 7 2 351
291 252 251 262 103 256 258 267 273 281 278 254 254 239 229 221 196 189 193 195 194 190 183 178 174 172 169 170 162 178 191 181 178 180 170 150 357 29 16 22 16 24 15 9 4 355 2 4 3
238 245 251 265 242 238 275 276 281 273 261 253 248 239 228 216 188 170 179 187 198 190 184 179 176 173 173 173 171 169 172 180 182 185 174 178 173 43 30 30 25 23 11 16 14 12 359 9 15
225 236 241 247 321 251 288 281 263 252 241 245 240 244 232 205 196 195 192 189 188 188 185 179 176 173 172 170 173 159 156 147 167 188 183 192 175 132 37 32 26 12 12 16 13 18 9 353 27
231 223 237 253 265 259 359 291 284 279 243 233 237 230 225 215 225 198 191 192 189 184 181 177 174 171 172 173 172 176 180 170 185 182 174 173 177 180 47 36 26 32 10 8 11 1 3 2 28
232 146 214 226 243 283 248 268 264 236 255 262 235 220 214 205 197 196 189 189 183 176 175 172 170 170 172 175 178 180 183 167 162 168 163 171 173 176 108 65 30 34 19 6 360 1 5 26 33
144 118 95 128 216 251 224 222 260 252 242 245 254 195 193 188 184 181 177 174 173 170 169 168 169 170 170 174 178 182 181 170 166 172 172 176 172 182 159 113 66 58 51 14 26 1 355 35 59
196 163 116 202 187 246 49 209 251 291 279 253 268 211 182 176 174 169 170 172 169 171 168 167 169 168 172 176 179 182 183 182 180 178 181 173 178 183 181 139 104 77 75 67 45 9 5 27 72
196 191 186 205 187 249 127 232 261 231 293 277 247 272 177 176 174 173 174 176 172 171 169 169 169 168 174 177 179 180 181 181 182 182 182 176 180 180 181 149 146 108 96 134 74 32 15 30 77
178 213 211 86 95 274 219 253 266 234 245 229 234 215 189 186 176 175 173 172 172 172 172 172 171 172 175 177 178 181 181 181 184 177 180 174 176 182 178 167 161 119 154 131 43 91 81 89 103
201 162 168 216 213 237 249 254 253 270 252 242 219 210 194 186 179 173 174 174 173 173 172 174 177 177 177 176 179 181 181 182 186 179 182 178 180 182 174 179 173 138 160 123 90 113 110 122 119
173 191 205 188 219 211 257 247 238 230 243 245 215 201 191 185 182 177 175 175 173 173 174 176 178 177 178 180 178 177 179 181 185 185 184 184 181 183 177 184 179 164 149 200 96 110 112 129 129
213 210 194 194 182 231 258 260 145 224 227 221 250 189 185 181 180 179 177 174 175 176 177 179 180 179 184 182 180 180 178 180 187 189 186 186 185 187 179 185 183 174 165 187 143 117 112 134 138